Weather History for Augusta, ME

Change the Weather History Date:

Thursday, November 7, 2013

  Actual Average Record
Temperature  
Mean Temperature 47 °F -  
Max Temperature 55 °F 45 °F 60 °F (2008)
Min Temperature 39 °F 32 °F 19 °F (2002)
Degree Days  
Heating Degree Days 18    
Moisture  
Dew Point 44 °F    
Average Humidity 82    
Maximum Humidity 94    
Minimum Humidity 53    
Precipitation  
Precipitation 0.09 in - - ()
Sea Level Pressure  
Sea Level Pressure 29.74 in    
Wind  
Wind Speed 10 mph (WSW)    
Max Wind Speed 14 mph    
Max Gust Speed 22 mph    
Visibility 9 miles    
Events Rain    
Averages and records for this station are not official NWS values.
T = Trace of Precipitation, MM = Missing Value Source: NWS Daily Summary

Daily Weather History Graph

Daily Weather History Graph

Search for Another Location

Airport:

Trip Planner

Search our weather history database for the weather conditions in past years. The results will help you decide how hot, cold, wet, or windy it might be!

Date:

Astronomy

Nov. 07, 2013 Rise Set
Actual Time 6:24 AM EST 4:20 PM EST
Civil Twilight 5:53 AM EST 4:51 PM EST
Nautical Twilight 5:19 AM EST 5:25 PM EST
Astronomical Twilight 4:45 AM EST 5:59 PM EST
Moon 10:32 AM EST (11/7) 8:26 PM EST (11/7)
Length of Visible Light 10h 57m
Length of Day
9h 56m
Waxing Crescent, 22% of the Moon is Illuminated
Nov 7
Waxing Crescent
Nov 10
First Quarter
Nov 17
Full
Nov 25
Last Quarter
Dec 2
New

Hourly Weather History & Observations

Time (EST) Temp. Windchill Dew Point Humidity Pressure Visibility Wind Dir Wind Speed Gust Speed Precip Events Conditions
12:53 AM 50.0 °F - 46.9 °F 89% 29.93 in 10.0 mi SSW 10.4 mph - N/A   Partly Cloudy
1:53 AM 50.0 °F - 46.9 °F 89% 29.90 in 10.0 mi SSW 8.1 mph - N/A   Partly Cloudy
2:53 AM 50.0 °F - 46.0 °F 86% 29.87 in 10.0 mi SSW 9.2 mph 16.1 mph N/A   Mostly Cloudy
3:53 AM 50.0 °F - 46.0 °F 86% 29.84 in 10.0 mi SSW 13.8 mph 21.9 mph N/A   Overcast
4:53 AM 50.0 °F - 46.0 °F 86% 29.82 in 10.0 mi SSW 13.8 mph 20.7 mph N/A   Mostly Cloudy
5:53 AM 51.1 °F - 46.0 °F 83% 29.80 in 10.0 mi South 8.1 mph 20.7 mph N/A   Overcast
6:53 AM 51.1 °F - 46.9 °F 86% 29.79 in 10.0 mi South 8.1 mph - N/A   Overcast
7:53 AM 52.0 °F - 48.0 °F 86% 29.77 in 10.0 mi South 11.5 mph 16.1 mph N/A   Overcast
8:53 AM 53.1 °F - 50.0 °F 89% 29.75 in 10.0 mi SSW 11.5 mph 18.4 mph N/A   Mostly Cloudy
9:53 AM 54.0 °F - 52.0 °F 93% 29.73 in 5.0 mi SSW 9.2 mph 17.3 mph 0.00 in Rain Light Rain
10:22 AM 55.4 °F - 51.8 °F 88% 29.71 in 10.0 mi SSW 6.9 mph - 0.00 in   Overcast
10:41 AM 55.4 °F - 53.6 °F 94% 29.70 in 6.0 mi SW 6.9 mph - 0.00 in Rain Light Rain
10:53 AM 55.0 °F - 53.1 °F 93% 29.70 in 9.0 mi SW 9.2 mph - 0.01 in Rain Light Rain
11:53 AM 55.0 °F - 53.1 °F 93% 29.65 in 8.0 mi SW 8.1 mph - 0.00 in Rain Light Rain
12:53 PM 55.9 °F - 54.0 °F 93% 29.65 in 10.0 mi SW 9.2 mph - 0.02 in Rain Light Rain
1:27 PM 55.4 °F - 53.6 °F 94% 29.64 in 10.0 mi WSW 8.1 mph - 0.01 in Rain Light Rain
1:53 PM 54.0 °F - 50.0 °F 86% 29.64 in 3.0 mi WNW 11.5 mph 19.6 mph 0.04 in Rain Light Rain
2:53 PM 51.1 °F - 48.0 °F 89% 29.64 in 10.0 mi NW 6.9 mph - 0.02 in Rain Light Rain
3:53 PM 50.0 °F - 46.0 °F 86% 29.67 in 10.0 mi NW 9.2 mph - 0.00 in   Mostly Cloudy
4:53 PM 48.0 °F - 42.1 °F 80% 29.68 in 10.0 mi NW 6.9 mph - N/A   Overcast
5:53 PM 46.0 °F 42.5 °F 37.9 °F 73% 29.70 in 10.0 mi WNW 6.9 mph - N/A   Clear
6:53 PM 45.0 °F 41.2 °F 35.1 °F 68% 29.74 in 10.0 mi WNW 6.9 mph - N/A   Mostly Cloudy
7:53 PM 44.1 °F 39.5 °F 33.1 °F 65% 29.75 in 10.0 mi NW 8.1 mph 18.4 mph N/A   Overcast
8:53 PM 42.1 °F 36.1 °F 30.0 °F 62% 29.75 in 10.0 mi NW 10.4 mph - N/A   Overcast
9:53 PM 41.0 °F 36.4 °F 28.0 °F 60% 29.74 in 10.0 mi WNW 6.9 mph - N/A   Scattered Clouds
10:53 PM 39.9 °F 33.9 °F 25.0 °F 55% 29.74 in 10.0 mi NW 9.2 mph 18.4 mph N/A   Mostly Cloudy
11:53 PM 39.0 °F 31.8 °F 23.0 °F 53% 29.75 in 10.0 mi WNW 11.5 mph 17.3 mph N/A   Mostly Cloudy